User: anonymous   Login
Location: Unspecified
(0.0000°N, 0.0000°E)
Time: 21:31:01
(UTC+00:00)
Language:

AO-27 - Orbit

View from above orbital plane
View from above orbital plane
View from above satellite
View from above satellite

Ground track
Ground track

The orbit data is extracted from the following two-line orbital elements,

1 22825U 93061C   24051.74692127  .00000202  00000-0  95021-4 0  9993
2 22825  98.8068 103.2086 0009368  65.9244 294.2917 14.30430004586097
Epoch (UTC): 20 February 2024 17:55:33
Eccentricity: 0.0009368
inclination: 98.8068°
perigee height: 783 km
apogee height: 797 km
right ascension of ascending node: 103.2086°
argument of perigee: 65.9244°
revolutions per day: 14.30430004
mean anomaly at epoch: 294.2917°
orbit number at epoch: 58609

The dashed part of the orbit path shows where the satellite is in the earth's shadow,  

DLR